Silverthorne, CO

10:18 PM MDT on August 25, 2016 (GMT -0600)
Kremmling

Weather History for K20V - October, 2012

Change the Weather History Date:

Friday, October 5, 2012

  Actual Average Record
Temperature  
Mean Temperature 46 °F -  
Max Temperature 59 °F - 73 °F (2007)
Min Temperature 32 °F - 24 °F (2013)
Degree Days  
Heating Degree Days 20    
Month to date heating degree days  
Cooling Degree Days 0    
Month to date cooling degree days  
Moisture  
Dew Point 12 °F    
Average Humidity 33    
Maximum Humidity 81    
Minimum Humidity 9    
Precipitation  
Precipitation 0.00 in - 0.17 in (2006)
Sea Level Pressure  
Sea Level Pressure 30.12 in    
Wind  
Wind Speed 6 mph (NNW)    
Max Wind Speed 21 mph    
Max Gust Speed 34 mph    
Visibility 10 miles    
Events Rain    
T = Trace of Precipitation, MM = Missing Value Source: NWS Daily Summary

Daily Weather History Graph

Daily Weather History Graph

Search for Another Location

Airport or City:

Trip Planner

Search our weather history database for the weather conditions in past years. The results will help you decide how hot, cold, wet, or windy it might be!

Date:

Astronomy

Oct. 05, 2012 Rise Set
Actual Time 7:06 AM MDT 6:40 PM MDT
Civil Twilight 6:39 AM MDT 7:07 PM MDT
Nautical Twilight 6:07 AM MDT 7:38 PM MDT
Astronomical Twilight 5:36 AM MDT 8:10 PM MDT
Moon 10:06 PM MDT (10/5) 12:16 PM MDT (10/5)
Length of Visible Light 12h 28m
Length of Day
11h 34m
Waning Gibbous, 73% of the Moon is Illuminated
Oct 5
Waning Gibbous
Oct 8
Last Quarter
Oct 15
New
Oct 21
First Quarter
Oct 29
Full

Hourly Weather History & Observations

Time (MDT) Temp. Windchill Dew Point Humidity Pressure Visibility Wind Dir Wind Speed Gust Speed Precip Events Conditions
12:07 AM 37.4 °F 33.8 °F 14.0 °F 38% 30.10 in 10.0 mi North 4.6 mph - N/A   Mostly Cloudy
12:35 AM 37.4 °F - 14.0 °F 38% 30.09 in 10.0 mi Calm Calm - N/A   Mostly Cloudy
12:49 AM 37.4 °F - 19.4 °F 48% 30.09 in 10.0 mi Calm Calm - N/A   Mostly Cloudy
1:07 AM 37.4 °F 34.9 °F 17.6 °F 45% 30.08 in 10.0 mi North 3.5 mph - N/A   Overcast
1:30 AM 39.2 °F 34.2 °F 19.4 °F 45% 30.08 in 10.0 mi South 6.9 mph - N/A   Overcast
1:46 AM 39.2 °F 37.0 °F 17.6 °F 42% 30.08 in 10.0 mi NNE 3.5 mph - N/A   Overcast
2:05 AM 42.8 °F - 14.0 °F 31% 30.08 in 10.0 mi Calm Calm - N/A   Overcast
2:31 AM 51.8 °F - 19.4 °F 28% 30.07 in 10.0 mi WNW 15.0 mph 24.2 mph N/A   Overcast
2:46 AM 50.0 °F - 21.2 °F 32% 30.08 in 10.0 mi NNW 15.0 mph 26.5 mph N/A Rain Light Rain
3:07 AM 50.0 °F - 23.0 °F 35% 30.08 in 10.0 mi WNW 10.4 mph 16.1 mph N/A   Overcast
3:25 AM 50.0 °F - 24.8 °F 37% 30.07 in 10.0 mi Calm Calm - N/A   Overcast
3:44 AM 50.0 °F - 24.8 °F 37% 30.08 in 10.0 mi Calm Calm - N/A   Overcast
4:12 AM 46.4 °F 39.5 °F 26.6 °F 46% 30.09 in 10.0 mi NNW 17.3 mph 34.5 mph N/A   Overcast
4:25 AM 44.6 °F 37.2 °F 26.6 °F 49% 30.09 in 10.0 mi North 17.3 mph 25.3 mph N/A   Overcast
4:55 AM 41.0 °F 35.8 °F 28.4 °F 61% 30.10 in 10.0 mi North 8.1 mph - N/A   Mostly Cloudy
5:13 AM 41.0 °F - 28.4 °F 61% 30.11 in 10.0 mi Calm Calm - N/A   Scattered Clouds
5:30 AM 41.0 °F - 28.4 °F 61% 30.10 in 10.0 mi Calm Calm - N/A   Clear
5:55 AM 37.4 °F - 28.4 °F 70% 30.11 in 10.0 mi Calm Calm - N/A   Scattered Clouds
6:15 AM 37.4 °F - 26.6 °F 65% 30.12 in 10.0 mi Calm Calm - N/A   Clear
6:26 AM 35.6 °F - 26.6 °F 70% 30.12 in 10.0 mi Calm Calm - N/A   Clear
6:44 AM 33.8 °F - 24.8 °F 70% 30.13 in 10.0 mi Calm Calm - N/A   Clear
7:06 AM 32.0 °F - 26.6 °F 80% 30.14 in 10.0 mi Calm Calm - N/A   Clear
7:27 AM 33.8 °F - 28.4 °F 81% 30.16 in 10.0 mi Calm Calm - N/A   Clear
7:47 AM 33.8 °F - 28.4 °F 81% 30.16 in 10.0 mi Calm Calm - N/A   Clear
8:03 AM 33.8 °F - 28.4 °F 81% 30.16 in 10.0 mi Calm Calm - N/A   Clear
8:35 AM 37.4 °F - 28.4 °F 70% 30.18 in 10.0 mi Calm Calm - N/A   Clear
8:55 AM 39.2 °F - 28.4 °F 65% 30.18 in 10.0 mi Calm Calm - N/A   Clear
9:12 AM 41.0 °F 39.0 °F 26.6 °F 57% 30.19 in 10.0 mi ESE 3.5 mph - N/A   Clear
9:32 AM 46.4 °F - 19.4 °F 34% 30.19 in 10.0 mi Calm Calm - N/A   Clear
9:48 AM 50.0 °F - 19.4 °F 30% 30.18 in 10.0 mi SSW 3.5 mph - N/A   Clear
10:05 AM 50.0 °F - 14.0 °F 24% 30.18 in 10.0 mi SSW 4.6 mph - N/A   Clear
10:35 AM 50.0 °F - 6.8 °F 17% 30.18 in 10.0 mi North 12.7 mph 17.3 mph N/A   Clear
10:45 AM 50.0 °F - 5.0 °F 16% 30.17 in 10.0 mi North 13.8 mph 19.6 mph N/A   Clear
11:10 AM 50.0 °F - -0.4 °F 13% 30.17 in 10.0 mi North 15.0 mph 21.9 mph N/A   Clear
11:35 AM 53.6 °F - 1.4 °F 12% 30.16 in 10.0 mi NNW 12.7 mph 19.6 mph N/A   Clear
11:44 AM 53.6 °F - 1.4 °F 12% 30.16 in 10.0 mi NNW 12.7 mph 19.6 mph N/A   Clear
12:32 PM 53.6 °F - 1.4 °F 12% 30.14 in 10.0 mi NNW 10.4 mph 16.1 mph N/A   Scattered Clouds
12:49 PM 51.8 °F - 3.2 °F 14% 30.14 in 10.0 mi North 13.8 mph 23.0 mph N/A   Mostly Cloudy
1:04 PM 51.8 °F - 1.4 °F 13% 30.14 in 10.0 mi North 13.8 mph 23.0 mph N/A   Scattered Clouds
1:34 PM 51.8 °F - -0.4 °F 12% 30.12 in 10.0 mi North 20.7 mph 27.6 mph N/A   Scattered Clouds
1:45 PM 51.8 °F - 1.4 °F 13% 30.11 in 10.0 mi NNE 20.7 mph 27.6 mph N/A   Scattered Clouds
2:04 PM 51.8 °F - 1.4 °F 13% 30.12 in 10.0 mi NNE 8.1 mph 21.9 mph N/A   Scattered Clouds
2:25 PM 59.0 °F - 1.4 °F 10% 30.11 in 10.0 mi West 12.7 mph 24.2 mph N/A   Clear
2:44 PM 59.0 °F - -0.4 °F 9% 30.11 in 10.0 mi WNW 12.7 mph 23.0 mph N/A   Clear
3:05 PM 55.4 °F - -4.0 °F 9% 30.11 in 10.0 mi NW 15.0 mph 23.0 mph N/A   Clear
3:26 PM 55.4 °F - -0.4 °F 10% 30.12 in 10.0 mi NW 12.7 mph 21.9 mph N/A   Clear
3:55 PM 53.6 °F - -4.0 °F 9% 30.12 in 10.0 mi NW 16.1 mph 20.7 mph N/A   Clear
4:06 PM 53.6 °F - -0.4 °F 11% 30.11 in 10.0 mi NW 18.4 mph 24.2 mph N/A   Clear
4:33 PM 50.0 °F - 5.0 °F 16% 30.10 in 10.0 mi North 13.8 mph 26.5 mph N/A   Clear
4:52 PM 50.0 °F - 3.2 °F 15% 30.10 in 10.0 mi NNW 11.5 mph 23.0 mph N/A   Clear
5:09 PM 50.0 °F - 5.0 °F 16% 30.10 in 10.0 mi NNW 5.8 mph 19.6 mph N/A   Clear
5:25 PM 50.0 °F - 5.0 °F 16% 30.11 in 10.0 mi North 9.2 mph 23.0 mph N/A   Clear
5:45 PM 50.0 °F - 5.0 °F 16% 30.11 in 10.0 mi NE 4.6 mph - N/A   Clear
6:13 PM 50.0 °F - 5.0 °F 16% 30.11 in 10.0 mi NNE 8.1 mph - N/A   Clear
6:27 PM 50.0 °F - 5.0 °F 16% 30.10 in 10.0 mi NNE 17.3 mph 25.3 mph N/A   Clear
6:45 PM 46.4 °F 39.5 °F 3.2 °F 17% 30.11 in 10.0 mi NE 17.3 mph 23.0 mph N/A   Clear
7:06 PM 46.4 °F 40.7 °F 5.0 °F 18% 30.11 in 10.0 mi NE 12.7 mph - N/A   Clear
7:35 PM 44.6 °F 39.7 °F 3.2 °F 18% 30.12 in 10.0 mi NNE 9.2 mph - N/A   Clear
7:46 PM 44.6 °F 40.2 °F 3.2 °F 18% 30.12 in 10.0 mi North 8.1 mph - N/A   Clear
8:15 PM 42.8 °F - 5.0 °F 21% 30.14 in 10.0 mi Calm Calm - N/A   Clear
8:26 PM 41.0 °F - 6.8 °F 24% 30.14 in 10.0 mi Calm Calm - N/A   Clear
8:46 PM 41.0 °F 38.0 °F 8.6 °F 26% 30.14 in 10.0 mi SW 4.6 mph - N/A   Clear
9:26 PM 41.0 °F 36.4 °F 6.8 °F 24% 30.12 in 10.0 mi WSW 6.9 mph - N/A   Clear
9:49 PM 41.0 °F 37.1 °F 5.0 °F 23% 30.12 in 10.0 mi NNW 5.8 mph - N/A   Clear
10:15 PM 37.4 °F - 6.8 °F 28% 30.12 in 10.0 mi Calm Calm - N/A   Clear
10:25 PM 37.4 °F 34.9 °F 8.6 °F 30% 30.12 in 10.0 mi ESE 3.5 mph - N/A   Clear
10:46 PM 35.6 °F - 6.8 °F 30% 30.12 in 10.0 mi Calm Calm - N/A   Clear
11:13 PM 35.6 °F - 8.6 °F 33% 30.12 in 10.0 mi Calm Calm - N/A   Clear
11:35 PM 35.6 °F - 10.4 °F 35% 30.12 in 10.0 mi Calm Calm - N/A   Clear
11:51 PM 35.6 °F - 10.4 °F 35% 30.12 in 10.0 mi Calm Calm - N/A   Clear